| time (UTC) | temp C | wind direction | speed KPH | gust KPH | rain 1hr cm | rain 24hr cm | rain mn cm | humidity % | barometer mb |
| 20260502203335 | 16 | 0.0 | 0.0 | 0.00 | 0.00 | 0.00 | 64 | 950.0 | |
| 20260502203036 | 16 | 0.0 | 0.0 | 0.00 | 0.00 | 0.00 | 64 | 950.0 | |
| 20260502202736 | 16 | 0.0 | 0.0 | 0.00 | 0.00 | 0.00 | 64 | 950.0 | |
| 20260502202436 | 16 | 0.0 | 0.0 | 0.00 | 0.00 | 0.00 | 64 | 950.0 | |
| 20260502202135 | 16 | 0.0 | 0.0 | 0.00 | 0.00 | 0.00 | 64 | 950.0 | |
| 20260502201835 | 16 | 0.0 | 0.0 | 0.00 | 0.00 | 0.00 | 64 | 950.0 | |
| 20260502201536 | 16 | 0.0 | 0.0 | 0.00 | 0.00 | 0.00 | 64 | 949.0 | |
| 20260502201236 | 16 | 0.0 | 0.0 | 0.00 | 0.00 | 0.00 | 64 | 949.0 | |
| 20260502200936 | 16 | 0.0 | 0.0 | 0.00 | 0.00 | 0.00 | 64 | 949.0 | |
| 20260502200636 | 16 | 0.0 | 0.0 | 0.00 | 0.00 | 0.00 | 64 | 949.0 | |
| 20260502200336 | 16 | 0.0 | 0.0 | 0.00 | 0.00 | 0.00 | 64 | 949.0 | |
| 20260502200035 | 16 | 0.0 | 0.0 | 0.00 | 0.00 | 0.00 | 64 | 949.0 | |
| 20260502195736 | 16 | 0.0 | 0.0 | 0.00 | 0.00 | 0.00 | 64 | 949.0 | |
| 20260502195436 | 16 | 0.0 | 0.0 | 0.00 | 0.00 | 0.00 | 62 | 949.0 | |
| 20260502195135 | 16 | 0.0 | 0.0 | 0.00 | 0.00 | 0.00 | 62 | 949.0 | |
| 20260502194836 | 16 | 0.0 | 0.0 | 0.00 | 0.00 | 0.00 | 62 | 949.0 | |
| 20260502194536 | 16 | 0.0 | 0.0 | 0.00 | 0.00 | 0.00 | 62 | 949.0 | |
| 20260502193936 | 16 | 0.0 | 0.0 | 0.00 | 0.00 | 0.00 | 62 | 949.0 | |
| 20260502193635 | 16 | 0.0 | 0.0 | 0.00 | 0.00 | 0.00 | 62 | 949.0 | |
| 20260502193336 | 16 | 0.0 | 0.0 | 0.00 | 0.00 | 0.00 | 62 | 949.0 | |
| 20260502193035 | 16 | 0.0 | 0.0 | 0.00 | 0.00 | 0.00 | 62 | 949.0 | |
| 20260502192736 | 16 | 0.0 | 0.0 | 0.00 | 0.00 | 0.00 | 62 | 949.0 | |
| 20260502192435 | 17 | 0.0 | 0.0 | 0.00 | 0.00 | 0.00 | 61 | 949.0 | |
| 20260502192136 | 17 | 0.0 | 0.0 | 0.00 | 0.00 | 0.00 | 61 | 949.0 | |
| 20260502191835 | 17 | 0.0 | 0.0 | 0.00 | 0.00 | 0.00 | 61 | 949.0 | |
| 20260502191536 | 17 | 0.0 | 0.0 | 0.00 | 0.00 | 0.00 | 61 | 949.0 | |
| 20260502191236 | 17 | 0.0 | 0.0 | 0.00 | 0.00 | 0.00 | 61 | 949.7 | |
| 20260502190936 | 17 | 0.0 | 0.0 | 0.00 | 0.00 | 0.00 | 61 | 949.7 | |
| 20260502190636 | 17 | 0.0 | 0.0 | 0.00 | 0.00 | 0.00 | 61 | 949.7 | |
| 20260502190336 | 17 | 0.0 | 0.0 | 0.00 | 0.00 | 0.00 | 61 | 949.7 | |
| 20260502190036 | 17 | 0.0 | 0.0 | 0.00 | 0.00 | 0.00 | 60 | 949.0 | |
| 20260502185735 | 17 | 0.0 | 0.0 | 0.00 | 0.00 | 0.00 | 60 | 949.0 | |
| 20260502185436 | 17 | 0.0 | 0.0 | 0.00 | 0.00 | 0.00 | 60 | 949.0 | |
| 20260502185136 | 17 | 0.0 | 0.0 | 0.00 | 0.00 | 0.00 | 60 | 949.0 | |
| 20260502184836 | 17 | 0.0 | 0.0 | 0.00 | 0.00 | 0.00 | 60 | 949.0 | |
| 20260502184536 | 18 | 0.0 | 0.0 | 0.00 | 0.00 | 0.00 | 61 | 949.0 | |
| 20260502184235 | 18 | 0.0 | 0.0 | 0.00 | 0.00 | 0.00 | 61 | 949.0 | |
| 20260502183935 | 18 | 0.0 | 0.0 | 0.00 | 0.00 | 0.00 | 61 | 949.0 | |
| 20260502183636 | 18 | 0.0 | 0.0 | 0.00 | 0.00 | 0.00 | 61 | 949.0 | |
| 20260502183336 | 18 | 0.0 | 0.0 | 0.00 | 0.00 | 0.00 | 61 | 949.0 | |
| 20260502183036 | 18 | 0.0 | 0.0 | 0.00 | 0.00 | 0.00 | 61 | 949.0 | |
| 20260502182436 | 18 | 0.0 | 0.0 | 0.00 | 0.00 | 0.00 | 61 | 949.0 | |
| 20260502182136 | 18 | 0.0 | 0.0 | 0.00 | 0.00 | 0.00 | 61 | 949.0 | |
| 20260502181836 | 18 | 0.0 | 0.0 | 0.00 | 0.00 | 0.00 | 61 | 949.0 | |
| 20260502181236 | 18 | 0.0 | 0.0 | 0.00 | 0.00 | 0.00 | 63 | 949.3 | |
| 20260502180936 | 18 | 0.0 | 0.0 | 0.00 | 0.00 | 0.00 | 63 | 949.3 | |
| 20260502180336 | 18 | 0.0 | 0.0 | 0.00 | 0.00 | 0.00 | 59 | 949.0 | |
| 20260502170336 | 18 | 0.0 | 0.0 | 0.00 | 0.00 | 0.00 | 59 | 949.0 | |
| 20260502164235 | 18 | 0.0 | 0.0 | 0.00 | 0.00 | 0.00 | 59 | 949.0 | |
| 20260502163936 | 19 | 0.0 | 0.0 | 0.00 | 0.00 | 0.00 | 58 | 949.0 | |
| 20260502163636 | 19 | 0.0 | 0.0 | 0.00 | 0.00 | 0.00 | 58 | 949.0 | |
| 20260502163335 | 19 | 0.0 | 0.0 | 0.00 | 0.00 | 0.00 | 58 | 949.0 | |
| 20260502162736 | 20 | 0.0 | 0.0 | 0.00 | 0.00 | 0.00 | 51 | 949.0 | |
| 20260502162435 | 20 | 0.0 | 0.0 | 0.00 | 0.00 | 0.00 | 51 | 949.0 | |
| 20260502162136 | 20 | 0.0 | 0.0 | 0.00 | 0.00 | 0.00 | 51 | 949.0 | |
| 20260502161836 | 20 | 0.0 | 0.0 | 0.00 | 0.00 | 0.00 | 54 | 948.8 | |
| 20260502161535 | 20 | 0.0 | 0.0 | 0.00 | 0.00 | 0.00 | 54 | 948.8 | |
| 20260502161236 | 20 | 0.0 | 0.0 | 0.00 | 0.00 | 0.00 | 52 | 948.0 | |
| 20260502160936 | 20 | 0.0 | 0.0 | 0.00 | 0.00 | 0.00 | 52 | 948.0 | |
| 20260502160336 | 20 | 0.0 | 0.0 | 0.00 | 0.00 | 0.00 | 52 | 948.0 | |
| 20260502152136 | 20 | 0.0 | 0.0 | 0.00 | 0.00 | 0.00 | 52 | 949.0 | |
| 20260502151835 | 20 | 0.0 | 0.0 | 0.00 | 0.00 | 0.00 | 52 | 949.0 | |
| 20260502151235 | 21 | 0.0 | 0.0 | 0.00 | 0.00 | 0.00 | 52 | 949.0 | |
| 20260502150936 | 21 | 0.0 | 0.0 | 0.00 | 0.00 | 0.00 | 51 | 949.0 | |
| 20260502150636 | 22 | 0.0 | 0.0 | 0.00 | 0.00 | 0.00 | 51 | 949.0 | |
| 20260502130636 | 21 | 0.0 | 0.0 | 0.00 | 0.00 | 0.00 | 59 | 950.0 | |
| 20260502130336 | 21 | 0.0 | 0.0 | 0.00 | 0.00 | 0.00 | 60 | 950.0 | |
| 20260502123636 | 21 | 0.0 | 0.0 | 0.00 | 0.00 | 0.00 | 62 | 951.1 | |
| 20260502123335 | 21 | 0.0 | 0.0 | 0.00 | 0.00 | 0.00 | 62 | 951.1 | |
| 20260502123036 | 20 | 0.0 | 0.0 | 0.00 | 0.00 | 0.00 | 62 | 951.0 | |
| 20260502122736 | 20 | 0.0 | 0.0 | 0.00 | 0.00 | 0.00 | 63 | 951.0 | |
| 20260502122136 | 20 | 0.0 | 0.0 | 0.00 | 0.00 | 0.00 | 64 | 951.0 | |
| 20260502121836 | 20 | 0.0 | 0.0 | 0.00 | 0.00 | 0.00 | 64 | 951.0 | |
| 20260502121536 | 20 | 0.0 | 0.0 | 0.00 | 0.00 | 0.00 | 64 | 951.0 | |
| 20260502121235 | 19 | 0.0 | 0.0 | 0.00 | 0.00 | 0.00 | 65 | 951.0 | |
| 20260502120936 | 19 | 0.0 | 0.0 | 0.00 | 0.00 | 0.00 | 65 | 951.0 | |
| 20260502120636 | 18 | 0.0 | 0.0 | 0.00 | 0.00 | 0.00 | 63 | 952.0 | |
| 20260502120336 | 18 | 0.0 | 0.0 | 0.00 | 0.00 | 0.00 | 63 | 952.0 | |
| 20260502115736 | 18 | 0.0 | 0.0 | 0.00 | 0.00 | 0.00 | 63 | 952.0 | |
| 20260502114835 | 19 | 0.0 | 0.0 | 0.00 | 0.00 | 0.00 | 60 | 952.0 | |
| 20260502114536 | 20 | 0.0 | 0.0 | 0.00 | 0.00 | 0.00 | 57 | 951.0 | |
| 20260502113936 | 20 | 0.0 | 0.0 | 0.00 | 0.00 | 0.00 | 57 | 951.7 | |
| 20260502113636 | 21 | 0.0 | 0.0 | 0.00 | 0.00 | 0.00 | 54 | 951.0 | |
| 20260502113336 | 21 | 0.0 | 0.0 | 0.00 | 0.00 | 0.00 | 54 | 951.0 | |
| 20260502113035 | 21 | 0.0 | 0.0 | 0.00 | 0.00 | 0.00 | 52 | 951.0 | |
| 20260502112736 | 21 | 0.0 | 0.0 | 0.00 | 0.00 | 0.00 | 52 | 951.0 | |
| 20260502112136 | 21 | 0.0 | 0.0 | 0.00 | 0.00 | 0.00 | 51 | 951.0 | |
| 20260502111836 | 21 | 0.0 | 0.0 | 0.00 | 0.00 | 0.00 | 51 | 951.0 | |
| 20260502111535 | 22 | 0.0 | 0.0 | 0.00 | 0.00 | 0.00 | 49 | 951.0 | |
| 20260502111236 | 22 | 0.0 | 0.0 | 0.00 | 0.00 | 0.00 | 48 | 951.0 | |
| 20260502110936 | 22 | 0.0 | 0.0 | 0.00 | 0.00 | 0.00 | 48 | 951.0 | |
| 20260502110635 | 23 | 0.0 | 0.0 | 0.00 | 0.00 | 0.00 | 52 | 951.0 | |
| 20260502110336 | 23 | 0.0 | 0.0 | 0.00 | 0.00 | 0.00 | 52 | 951.0 | |
| 20260502110035 | 23 | 0.0 | 0.0 | 0.00 | 0.00 | 0.00 | 52 | 951.0 | |
| 20260502105736 | 23 | 0.0 | 0.0 | 0.00 | 0.00 | 0.00 | 52 | 951.0 | |
| 20260502105436 | 22 | 0.0 | 0.0 | 0.00 | 0.00 | 0.00 | 54 | 951.0 | |
| 20260502105135 | 22 | 0.0 | 0.0 | 0.00 | 0.00 | 0.00 | 54 | 951.0 | |
| 20260502104836 | 22 | 0.0 | 0.0 | 0.00 | 0.00 | 0.00 | 54 | 951.0 | |
| 20260502104535 | 22 | 0.0 | 0.0 | 0.00 | 0.00 | 0.00 | 59 | 951.0 | |
| 20260502104236 | 22 | 0.0 | 0.0 | 0.00 | 0.00 | 0.00 | 59 | 951.0 | |
| 20260502103936 | 22 | 0.0 | 0.0 | 0.00 | 0.00 | 0.00 | 59 | 951.0 | |
| 20260502103636 | 22 | 0.0 | 0.0 | 0.00 | 0.00 | 0.00 | 59 | 951.0 | |
| 20260502103335 | 22 | 0.0 | 0.0 | 0.00 | 0.00 | 0.00 | 59 | 951.0 | |
| 20260502103035 | 22 | 0.0 | 0.0 | 0.00 | 0.00 | 0.00 | 59 | 951.0 | |
| 20260502102736 | 22 | 0.0 | 0.0 | 0.00 | 0.00 | 0.00 | 59 | 951.0 | |
| 20260502102435 | 22 | 0.0 | 0.0 | 0.00 | 0.00 | 0.00 | 59 | 951.0 | |
| 20260502102136 | 22 | 0.0 | 0.0 | 0.00 | 0.00 | 0.00 | 60 | 952.0 | |
| 20260502101835 | 22 | 0.0 | 0.0 | 0.00 | 0.00 | 0.00 | 60 | 952.0 | |
| 20260502101235 | 21 | 0.0 | 0.0 | 0.00 | 0.00 | 0.00 | 62 | 952.0 | |
| 20260502100636 | 20 | 0.0 | 0.0 | 0.00 | 0.00 | 0.00 | 64 | 952.0 | |
| 20260502100336 | 20 | 0.0 | 0.0 | 0.00 | 0.00 | 0.00 | 64 | 952.0 | |
| 20260502091236 | 19 | 0.0 | 0.0 | 0.00 | 0.00 | 0.00 | 64 | 952.0 | |
| 20260502090936 | 19 | 0.0 | 0.0 | 0.00 | 0.00 | 0.00 | 64 | 952.0 | |
| 20260502090636 | 20 | 0.0 | 0.0 | 0.00 | 0.00 | 0.00 | 63 | 952.0 | |
| 20260502090336 | 20 | 0.0 | 0.0 | 0.00 | 0.00 | 0.00 | 61 | 952.1 | |
| 20260502071535 | 21 | 0.0 | 0.0 | 0.00 | 0.00 | 0.00 | 57 | 951.0 | |
| 20260502071236 | 22 | 0.0 | 0.0 | 0.00 | 0.00 | 0.00 | 57 | 951.0 | |
| 20260502070936 | 22 | 0.0 | 0.0 | 0.00 | 0.00 | 0.00 | 57 | 951.0 | |
| 20260502070635 | 22 | 0.0 | 0.0 | 0.00 | 0.00 | 0.00 | 57 | 951.0 | |
| 20260502070335 | 22 | 0.0 | 0.0 | 0.00 | 0.00 | 0.00 | 57 | 951.0 | |
| 20260502070036 | 22 | 0.0 | 0.0 | 0.00 | 0.00 | 0.00 | 57 | 951.0 | |
| 20260502065735 | 21 | 0.0 | 0.0 | 0.00 | 0.00 | 0.00 | 59 | 951.0 | |
| 20260502065436 | 20 | 0.0 | 0.0 | 0.00 | 0.00 | 0.00 | 62 | 952.0 | |
| 20260502065135 | 20 | 0.0 | 0.0 | 0.00 | 0.00 | 0.00 | 62 | 952.0 | |
| 20260502064836 | 20 | 0.0 | 0.0 | 0.00 | 0.00 | 0.00 | 63 | 952.0 | |
| 20260502064536 | 20 | 0.0 | 0.0 | 0.00 | 0.00 | 0.00 | 63 | 952.0 | |
| 20260502064236 | 18 | 0.0 | 0.0 | 0.00 | 0.00 | 0.00 | 68 | 952.0 | |
| 20260502063636 | 16 | 0.0 | 0.0 | 0.00 | 0.00 | 0.00 | 72 | 952.0 | |
| 20260502063336 | 16 | 0.0 | 0.0 | 0.00 | 0.00 | 0.00 | 75 | 952.0 | |
| 20260502063036 | 16 | 0.0 | 0.0 | 0.00 | 0.00 | 0.00 | 75 | 952.0 | |
| 20260502062436 | 15 | 0.0 | 0.0 | 0.00 | 0.00 | 0.00 | 76 | 952.0 | |
| 20260502062136 | 15 | 0.0 | 0.0 | 0.00 | 0.00 | 0.00 | 76 | 952.0 | |
| 20260502061836 | 15 | 0.0 | 0.0 | 0.00 | 0.00 | 0.00 | 76 | 952.0 | |
| 20260502061536 | 15 | 0.0 | 0.0 | 0.00 | 0.00 | 0.00 | 76 | 952.0 | |
| 20260502061236 | 15 | 0.0 | 0.0 | 0.00 | 0.00 | 0.00 | 77 | 952.3 | |
| 20260502060936 | 15 | 0.0 | 0.0 | 0.00 | 0.00 | 0.00 | 77 | 952.3 | |
| 20260502060636 | 15 | 0.0 | 0.0 | 0.00 | 0.00 | 0.00 | 77 | 952.3 | |
| 20260502060335 | 15 | 0.0 | 0.0 | 0.00 | 0.00 | 0.00 | 79 | 952.0 | |
| 20260502060036 | 15 | 0.0 | 0.0 | 0.00 | 0.00 | 0.00 | 79 | 952.0 | |
| 20260502055736 | 15 | 0.0 | 0.0 | 0.00 | 0.00 | 0.00 | 79 | 952.0 | |
| 20260502055135 | 15 | 0.0 | 0.0 | 0.00 | 0.00 | 0.00 | 79 | 952.0 | |
| 20260502054835 | 15 | 0.0 | 0.0 | 0.00 | 0.00 | 0.00 | 79 | 952.0 | |
| 20260502053936 | 15 | 0.0 | 0.0 | 0.00 | 0.00 | 0.00 | 79 | 952.0 | |
| 20260502053635 | 15 | 0.0 | 0.0 | 0.00 | 0.00 | 0.00 | 79 | 952.0 | |
| 20260502053335 | 15 | 0.0 | 0.0 | 0.00 | 0.00 | 0.00 | 79 | 952.0 | |
| 20260502052736 | 15 | 0.0 | 0.0 | 0.00 | 0.00 | 0.00 | 79 | 952.0 | |
| 20260502052435 | 15 | 0.0 | 0.0 | 0.00 | 0.00 | 0.00 | 79 | 952.0 | |
| 20260502052136 | 15 | 0.0 | 0.0 | 0.00 | 0.00 | 0.00 | 79 | 952.0 | |
| 20260502051535 | 15 | 0.0 | 0.0 | 0.00 | 0.00 | 0.00 | 79 | 952.0 | |
| 20260502051236 | 15 | 0.0 | 0.0 | 0.00 | 0.00 | 0.00 | 80 | 952.2 | |
| 20260502050936 | 15 | 0.0 | 0.0 | 0.00 | 0.00 | 0.00 | 80 | 952.2 | |
| 20260502050636 | 15 | 0.0 | 0.0 | 0.00 | 0.00 | 0.00 | 80 | 952.2 | |
| 20260502050336 | 15 | 0.0 | 0.0 | 0.00 | 0.00 | 0.00 | 79 | 952.4 | |
| 20260502050036 | 15 | 0.0 | 0.0 | 0.00 | 0.00 | 0.00 | 79 | 952.4 | |
| 20260502045735 | 15 | 0.0 | 0.0 | 0.00 | 0.00 | 0.00 | 79 | 952.4 | |
| 20260502045435 | 15 | 0.0 | 0.0 | 0.00 | 0.00 | 0.00 | 79 | 952.4 | |
| 20260502045135 | 15 | 0.0 | 0.0 | 0.00 | 0.00 | 0.00 | 79 | 952.4 | |
| 20260502044536 | 15 | 0.0 | 0.0 | 0.00 | 0.00 | 0.00 | 79 | 952.4 | |
| 20260502044236 | 15 | 0.0 | 0.0 | 0.00 | 0.00 | 0.00 | 79 | 952.4 | |
| 20260502043936 | 15 | 0.0 | 0.0 | 0.00 | 0.00 | 0.00 | 79 | 952.4 | |
| 20260502043636 | 15 | 0.0 | 0.0 | 0.00 | 0.00 | 0.00 | 79 | 952.4 | |
| 20260502043336 | 15 | 0.0 | 0.0 | 0.00 | 0.00 | 0.00 | 79 | 952.4 | |
| 20260502043035 | 15 | 0.0 | 0.0 | 0.00 | 0.00 | 0.00 | 79 | 952.4 | |
| 20260502042735 | 15 | 0.0 | 0.0 | 0.00 | 0.00 | 0.00 | 79 | 952.4 | |
| 20260502042436 | 15 | 0.0 | 0.0 | 0.00 | 0.00 | 0.00 | 79 | 952.4 | |
| 20260502042135 | 15 | 0.0 | 0.0 | 0.00 | 0.00 | 0.00 | 79 | 952.4 | |
| 20260502041836 | 15 | 0.0 | 0.0 | 0.00 | 0.00 | 0.00 | 79 | 952.4 | |
| 20260502041236 | 15 | 0.0 | 0.0 | 0.00 | 0.00 | 0.00 | 79 | 952.4 | |
| 20260502040936 | 15 | 0.0 | 0.0 | 0.00 | 0.00 | 0.00 | 79 | 952.0 | |
| 20260502040336 | 15 | 0.0 | 0.0 | 0.00 | 0.00 | 0.00 | 76 | 952.0 | |
| 20260502040035 | 15 | 0.0 | 0.0 | 0.00 | 0.00 | 0.00 | 76 | 952.0 | |
| 20260502035736 | 15 | 0.0 | 0.0 | 0.00 | 0.00 | 0.00 | 76 | 952.0 | |
| 20260502035435 | 15 | 0.0 | 0.0 | 0.00 | 0.00 | 0.00 | 76 | 952.0 | |
| 20260502035135 | 15 | 0.0 | 0.0 | 0.00 | 0.00 | 0.00 | 76 | 952.0 | |
| 20260502034235 | 15 | 0.0 | 0.0 | 0.00 | 0.00 | 0.00 | 76 | 952.0 | |
| 20260502033936 | 15 | 0.0 | 0.0 | 0.00 | 0.00 | 0.00 | 76 | 952.0 | |
| 20260502033635 | 15 | 0.0 | 0.0 | 0.00 | 0.00 | 0.00 | 76 | 952.6 | |
| 20260502033336 | 15 | 0.0 | 0.0 | 0.00 | 0.00 | 0.00 | 76 | 952.6 | |
| 20260502033036 | 15 | 0.0 | 0.0 | 0.00 | 0.00 | 0.00 | 76 | 952.6 | |
| 20260502032736 | 15 | 0.0 | 0.0 | 0.00 | 0.00 | 0.00 | 76 | 952.6 | |
| 20260502032436 | 15 | 0.0 | 0.0 | 0.00 | 0.00 | 0.00 | 76 | 952.6 | |
| 20260502032136 | 15 | 0.0 | 0.0 | 0.00 | 0.00 | 0.00 | 76 | 952.6 | |
| 20260502031535 | 15 | 0.0 | 0.0 | 0.00 | 0.00 | 0.00 | 76 | 952.6 | |
| 20260502031236 | 15 | 0.0 | 0.0 | 0.00 | 0.00 | 0.00 | 73 | 952.0 | |
| 20260502030935 | 15 | 0.0 | 0.0 | 0.00 | 0.00 | 0.00 | 73 | 952.0 | |
| 20260502030336 | 15 | 0.0 | 0.0 | 0.00 | 0.00 | 0.00 | 73 | 952.0 | |
| 20260502030036 | 15 | 0.0 | 0.0 | 0.00 | 0.00 | 0.00 | 73 | 952.0 | |
| 20260502025736 | 15 | 0.0 | 0.0 | 0.00 | 0.00 | 0.00 | 73 | 952.0 | |
| 20260502025436 | 15 | 0.0 | 0.0 | 0.00 | 0.00 | 0.00 | 73 | 952.0 | |
| 20260502025136 | 15 | 0.0 | 0.0 | 0.00 | 0.00 | 0.00 | 73 | 952.0 | |
| 20260502024836 | 15 | 0.0 | 0.0 | 0.00 | 0.00 | 0.00 | 73 | 952.0 | |
| 20260502024236 | 15 | 0.0 | 0.0 | 0.00 | 0.00 | 0.00 | 73 | 952.0 | |
| 20260502023636 | 16 | 0.0 | 0.0 | 0.00 | 0.00 | 0.00 | 74 | 952.0 | |
| 20260502023336 | 16 | 0.0 | 0.0 | 0.00 | 0.00 | 0.00 | 74 | 952.0 | |
| 20260502023036 | 16 | 0.0 | 0.0 | 0.00 | 0.00 | 0.00 | 74 | 952.0 | |
| 20260502022736 | 16 | 0.0 | 0.0 | 0.00 | 0.00 | 0.00 | 74 | 952.0 | |
| 20260502022436 | 16 | 0.0 | 0.0 | 0.00 | 0.00 | 0.00 | 74 | 952.0 | |
| 20260502022136 | 16 | 0.0 | 0.0 | 0.00 | 0.00 | 0.00 | 74 | 952.0 | |
| 20260502021836 | 16 | 0.0 | 0.0 | 0.00 | 0.00 | 0.00 | 74 | 952.9 | |
| 20260502021536 | 16 | 0.0 | 0.0 | 0.00 | 0.00 | 0.00 | 75 | 953.0 | |
| 20260502021235 | 16 | 0.0 | 0.0 | 0.00 | 0.00 | 0.00 | 75 | 953.0 | |
| 20260502020935 | 16 | 0.0 | 0.0 | 0.00 | 0.00 | 0.00 | 75 | 953.0 | |
| 20260502020636 | 16 | 0.0 | 0.0 | 0.00 | 0.00 | 0.00 | 75 | 953.0 | |
| 20260502020335 | 16 | 0.0 | 0.0 | 0.00 | 0.00 | 0.00 | 75 | 953.0 | |
| 20260502015735 | 16 | 0.0 | 0.0 | 0.00 | 0.00 | 0.00 | 75 | 953.0 | |
| 20260502015436 | 16 | 0.0 | 0.0 | 0.00 | 0.00 | 0.00 | 75 | 953.0 | |
| 20260502015136 | 16 | 0.0 | 0.0 | 0.00 | 0.00 | 0.00 | 75 | 953.0 | |
| 20260502014836 | 16 | 0.0 | 0.0 | 0.00 | 0.00 | 0.00 | 75 | 953.0 | |
| 20260502014536 | 16 | 0.0 | 0.0 | 0.00 | 0.00 | 0.00 | 75 | 953.0 | |
| 20260502014236 | 16 | 0.0 | 0.0 | 0.00 | 0.00 | 0.00 | 75 | 953.0 | |
| 20260502013936 | 16 | 0.0 | 0.0 | 0.00 | 0.00 | 0.00 | 75 | 953.0 | |
| 20260502013635 | 16 | 0.0 | 0.0 | 0.00 | 0.00 | 0.00 | 75 | 953.0 | |
| 20260502013336 | 16 | 0.0 | 0.0 | 0.00 | 0.00 | 0.00 | 75 | 953.0 | |
| 20260502013036 | 15 | 0.0 | 0.0 | 0.00 | 0.00 | 0.00 | 75 | 953.3 | |
| 20260502012736 | 15 | 0.0 | 0.0 | 0.00 | 0.00 | 0.00 | 75 | 953.3 | |
| 20260502012435 | 15 | 0.0 | 0.0 | 0.00 | 0.00 | 0.00 | 75 | 953.3 | |
| 20260502012135 | 15 | 0.0 | 0.0 | 0.00 | 0.00 | 0.00 | 76 | 953.0 | |
| 20260502011836 | 15 | 0.0 | 0.0 | 0.00 | 0.00 | 0.00 | 76 | 953.0 | |
| 20260502011535 | 15 | 0.0 | 0.0 | 0.00 | 0.00 | 0.00 | 76 | 953.0 | |
| 20260502011236 | 15 | 0.0 | 0.0 | 0.00 | 0.00 | 0.00 | 76 | 953.0 | |
| 20260502010935 | 15 | 0.0 | 0.0 | 0.00 | 0.00 | 0.00 | 76 | 953.0 | |
| 20260502010636 | 15 | 0.0 | 0.0 | 0.00 | 0.00 | 0.00 | 76 | 953.0 | |
| 20260502010036 | 15 | 0.0 | 0.0 | 0.00 | 0.00 | 0.00 | 76 | 953.0 | |
| 20260502005135 | 15 | 0.0 | 0.0 | 0.00 | 0.00 | 0.00 | 76 | 953.0 | |
| 20260502004835 | 15 | 0.0 | 0.0 | 0.00 | 0.00 | 0.00 | 76 | 953.0 | |
| 20260502004535 | 15 | 0.0 | 0.0 | 0.00 | 0.00 | 0.00 | 76 | 953.0 | |
| 20260502004236 | 15 | 0.0 | 0.0 | 0.00 | 0.00 | 0.00 | 76 | 953.0 | |
| 20260502003936 | 15 | 0.0 | 0.0 | 0.00 | 0.00 | 0.00 | 76 | 953.3 | |
| 20260502003336 | 15 | 0.0 | 0.0 | 0.00 | 0.00 | 0.00 | 76 | 953.3 | |
| 20260502003036 | 15 | 0.0 | 0.0 | 0.00 | 0.00 | 0.00 | 77 | 953.0 | |
| 20260502002736 | 15 | 0.0 | 0.0 | 0.00 | 0.00 | 0.00 | 77 | 953.0 | |
| 20260502002435 | 15 | 0.0 | 0.0 | 0.00 | 0.00 | 0.00 | 77 | 953.0 | |
| 20260502001836 | 15 | 0.0 | 0.0 | 0.00 | 0.00 | 0.00 | 77 | 953.0 | |
| 20260502001536 | 15 | 0.0 | 0.0 | 0.00 | 0.00 | 0.00 | 77 | 953.0 | |
| 20260502001236 | 15 | 0.0 | 0.0 | 0.00 | 0.00 | 0.00 | 77 | 953.0 | |
| 20260502000936 | 16 | 0.0 | 0.0 | 0.00 | 0.00 | 0.00 | 76 | 953.0 | |
| 20260502000636 | 16 | 0.0 | 0.0 | 0.00 | 0.00 | 0.00 | 76 | 953.0 | |
| 20260502000336 | 16 | 0.0 | 0.0 | 0.00 | 0.00 | 0.00 | 76 | 953.0 | |
| 20260502000036 | 16 | 0.0 | 0.0 | 0.00 | 0.00 | 0.00 | 76 | 953.0 | |
| 20260501235736 | 16 | 0.0 | 0.0 | 0.00 | 0.00 | 0.00 | 76 | 953.0 | |
| 20260501235435 | 16 | 0.0 | 0.0 | 0.00 | 0.00 | 0.00 | 76 | 953.0 | |
| 20260501235136 | 16 | 0.0 | 0.0 | 0.00 | 0.00 | 0.00 | 76 | 953.0 | |
| 20260501234836 | 15 | 0.0 | 0.0 | 0.00 | 0.00 | 0.00 | 76 | 953.8 | |
| 20260501233936 | 15 | 0.0 | 0.0 | 0.00 | 0.00 | 0.00 | 76 | 953.8 | |
| 20260501233636 | 15 | 0.0 | 0.0 | 0.00 | 0.00 | 0.00 | 76 | 953.8 | |
| 20260501233336 | 15 | 0.0 | 0.0 | 0.00 | 0.00 | 0.00 | 76 | 953.8 | |
| 20260501233036 | 16 | 0.0 | 0.0 | 0.00 | 0.00 | 0.00 | 74 | 953.0 | |
| 20260501232736 | 16 | 0.0 | 0.0 | 0.00 | 0.00 | 0.00 | 74 | 953.0 | |
| 20260501232436 | 16 | 0.0 | 0.0 | 0.00 | 0.00 | 0.00 | 74 | 953.0 | |
| 20260501232135 | 16 | 0.0 | 0.0 | 0.00 | 0.00 | 0.00 | 74 | 953.0 | |
| 20260501231536 | 16 | 0.0 | 0.0 | 0.00 | 0.00 | 0.00 | 76 | 954.0 | |
| 20260501231236 | 16 | 0.0 | 0.0 | 0.00 | 0.00 | 0.00 | 76 | 954.0 | |
| 20260501230936 | 16 | 0.0 | 0.0 | 0.00 | 0.00 | 0.00 | 76 | 954.0 | |
| 20260501230636 | 16 | 0.0 | 0.0 | 0.00 | 0.00 | 0.00 | 76 | 954.0 | |
| 20260501230035 | 17 | 0.0 | 0.0 | 0.00 | 0.00 | 0.00 | 75 | 954.1 | |
| 20260501225736 | 17 | 0.0 | 0.0 | 0.00 | 0.00 | 0.00 | 75 | 954.1 | |
| 20260501225435 | 17 | 0.0 | 0.0 | 0.00 | 0.00 | 0.00 | 75 | 954.1 | |
| 20260501225135 | 17 | 0.0 | 0.0 | 0.00 | 0.00 | 0.00 | 75 | 954.1 | |
| 20260501224836 | 17 | 0.0 | 0.0 | 0.00 | 0.00 | 0.00 | 75 | 954.1 | |
| 20260501224536 | 17 | 0.0 | 0.0 | 0.00 | 0.00 | 0.00 | 75 | 954.1 | |
| 20260501224235 | 17 | 0.0 | 0.0 | 0.00 | 0.00 | 0.00 | 75 | 954.1 | |
| 20260501223935 | 17 | 0.0 | 0.0 | 0.00 | 0.00 | 0.00 | 75 | 954.1 | |
| 20260501223636 | 17 | 0.0 | 0.0 | 0.00 | 0.00 | 0.00 | 75 | 954.1 | |
| 20260501223336 | 17 | 0.0 | 0.0 | 0.00 | 0.00 | 0.00 | 74 | 954.0 | |
| 20260501223036 | 17 | 0.0 | 0.0 | 0.00 | 0.00 | 0.00 | 74 | 954.0 | |
| 20260501222736 | 17 | 0.0 | 0.0 | 0.00 | 0.00 | 0.00 | 74 | 954.0 | |
| 20260501222435 | 17 | 0.0 | 0.0 | 0.00 | 0.00 | 0.00 | 74 | 954.0 | |
| 20260501221836 | 17 | 0.0 | 0.0 | 0.00 | 0.00 | 0.00 | 74 | 954.0 | |
| 20260501221536 | 17 | 0.0 | 0.0 | 0.00 | 0.00 | 0.00 | 74 | 954.0 | |
| 20260501221235 | 17 | 0.0 | 0.0 | 0.00 | 0.00 | 0.00 | 74 | 954.0 | |
| 20260501220636 | 17 | 0.0 | 0.0 | 0.00 | 0.00 | 0.00 | 74 | 954.0 | |
| 20260501220336 | 17 | 0.0 | 0.0 | 0.00 | 0.00 | 0.00 | 71 | 954.0 | |
| 20260501220036 | 17 | 0.0 | 0.0 | 0.00 | 0.00 | 0.00 | 71 | 954.0 | |
| 20260501215436 | 17 | 0.0 | 0.0 | 0.00 | 0.00 | 0.00 | 71 | 954.0 | |
| 20260501215135 | 17 | 0.0 | 0.0 | 0.00 | 0.00 | 0.00 | 71 | 954.0 | |
| 20260501214836 | 17 | 0.0 | 0.0 | 0.00 | 0.00 | 0.00 | 70 | 954.5 | |
| 20260501214536 | 17 | 0.0 | 0.0 | 0.00 | 0.00 | 0.00 | 70 | 954.5 | |
| 20260501214236 | 17 | 0.0 | 0.0 | 0.00 | 0.00 | 0.00 | 70 | 954.0 | |
| 20260501213935 | 17 | 0.0 | 0.0 | 0.00 | 0.00 | 0.00 | 70 | 954.0 | |
| 20260501213636 | 18 | 0.0 | 0.0 | 0.00 | 0.00 | 0.00 | 67 | 954.0 | |
| 20260501213336 | 18 | 0.0 | 0.0 | 0.00 | 0.00 | 0.00 | 67 | 954.0 | |
| 20260501212736 | 18 | 0.0 | 0.0 | 0.00 | 0.00 | 0.00 | 67 | 954.0 | |
| 20260501212436 | 18 | 0.0 | 0.0 | 0.00 | 0.00 | 0.00 | 67 | 954.0 | |
| 20260501212136 | 18 | 0.0 | 0.0 | 0.00 | 0.00 | 0.00 | 67 | 954.0 | |
| 20260501211835 | 18 | 0.0 | 0.0 | 0.00 | 0.00 | 0.00 | 63 | 954.0 | |
| 20260501211536 | 19 | 0.0 | 0.0 | 0.00 | 0.00 | 0.00 | 57 | 954.0 | |
| 20260501211235 | 19 | 0.0 | 0.0 | 0.00 | 0.00 | 0.00 | 56 | 954.0 | |
| 20260501210936 | 19 | 0.0 | 0.0 | 0.00 | 0.00 | 0.00 | 56 | 953.0 | |
| 20260501210335 | 18 | 0.0 | 0.0 | 0.00 | 0.00 | 0.00 | 56 | 953.0 | |
| 20260501210035 | 18 | 0.0 | 0.0 | 0.00 | 0.00 | 0.00 | 56 | 953.0 | |
| 20260501205735 | 18 | 0.0 | 0.0 | 0.00 | 0.00 | 0.00 | 56 | 953.0 | |
| 20260501205436 | 18 | 0.0 | 0.0 | 0.00 | 0.00 | 0.00 | 56 | 953.0 | |
| 20260501205136 | 18 | 0.0 | 0.0 | 0.00 | 0.00 | 0.00 | 55 | 953.4 | |
| 20260501204836 | 18 | 0.0 | 0.0 | 0.00 | 0.00 | 0.00 | 55 | 953.4 | |
| 20260501204536 | 18 | 0.0 | 0.0 | 0.00 | 0.00 | 0.00 | 53 | 953.0 | |
| 20260501203936 | 18 | 0.0 | 0.0 | 0.00 | 0.00 | 0.00 | 53 | 953.0 | |
| 20260501203636 | 18 | 0.0 | 0.0 | 0.00 | 0.00 | 0.00 | 53 | 953.0 |